Regional Weather Roundup
Issued by NWS Cleveland, OH

Home | Current Version | Previous Version | Graphics & Text | Print | Product List | Glossary On
Versions: 1 2 3 4 5 6 7 8 9 10 11 12 13 14 15 16 17 18 19 20 21 22 23 24 25 26 27 28 29 30 31 32 33 34 35 36 37 38 39 40 41 42 43 44 45 46 47 48 49 50
000
ASUS41 KCLE 310902
RWRCLE
OHIO REGIONAL WEATHER ROUNDUP
NATIONAL WEATHER SERVICE CLEVELAND, OH
500 AM EDT FRI JUL 31 2015

NOTE: "FAIR" INDICATES FEW OR NO CLOUDS BELOW 12,000 FEET WITH NO
SIGNIFICANT WEATHER AND/OR OBSTRUCTIONS TO VISIBILITY.

OHZ001>008-015>018-024>027-034-035-043-044-311000-
   NORTHWEST OHIO

CITY           SKY/WX    TMP DP  RH WIND       PRES   REMARKS
DEFIANCE       CLEAR     65  58  78 SW3       29.99F
FINDLAY        CLEAR     66  57  72 SW7       29.99S
TOLEDO EXPRESS CLEAR     64  57  78 W8        29.97F
TOLEDO EXEC    CLEAR     66  57  72 SW6       29.98S
LIMA           CLEAR     65  58  78 SW6       30.01F
$$

OHZ009>014-019>023-028>033-038-089-311000-
   NORTHEAST OHIO

CITY           SKY/WX    TMP DP  RH WIND       PRES   REMARKS
CLE-HOPKINS    CLEAR     64  57  78 SW6       29.99S
CLE-LAKEFRONT  CLEAR     71  57  61 SW9       29.95S
CUY CO. ARPT   NOT AVBL
LORAIN-ELYRIA  CLEAR     62  56  80 W6        29.98S
ASHTABULA      CLEAR     63  61  93 CALM      29.96S
AKRON-CANTON   CLEAR     65  56  72 W6        29.99F
WOOSTER        CLEAR     57  55  93 CALM      30.00F
MANSFIELD      CLEAR     66  54  65 SW6       30.01F
YOUNGSTOWN     CLEAR     62  58  86 SW5       29.98S
$$

OHZ042-051>053-060>062-070>072-077>081-311000-
  SOUTHWEST OHIO

CITY           SKY/WX    TMP DP  RH WIND       PRES   REMARKS
CINC-COVINGTON CLEAR     66  62  86 CALM      30.05F
CINC-LUNKEN    CLEAR     62  62 100 CALM      30.05F
HAMILTON       CLEAR     63  61  93 CALM      30.05F
DAYTON         CLEAR     64  59  83 W7        30.04F
WRIGHT-PAT AFB CLEAR     64  60  87 S3        30.03F
DAYTON GENERAL CLEAR     65  60  84 S3        30.04F
WILMINGTON     CLEAR     65  59  81 W6        30.04F
$$

OHZ036-037-039>041-045>050-054>059-063>069-073>076-082>088-311000-
  CENTRAL AND SOUTHEAST OHIO

CITY           SKY/WX    TMP DP  RH WIND       PRES   REMARKS
COLUMBUS       CLEAR     64  60  87 CALM      30.02S
OSU AIRPORT    CLEAR     63  57  81 W7        30.02S
BOLTON FIELD   NOT AVBL
RICKENBACK AFB CLEAR     60  58  92 CALM      30.02S
NEWARK         CLEAR     60  58  92 CALM      30.01F
MARION         CLEAR     66  56  70 W6        30.01F
LANCASTER      CLEAR     58  56  93 E3        30.02F
ZANESVILLE     CLEAR     60  57  89 CALM      30.01S
NEW PHILLY     CLEAR     58  58 100 CALM      30.00F
$$



USA.gov is the U.S. government's official web portal to all federal, state and local government web resources and services.